Voltar ao catálogo

STARLINK-32151

AtivoComunicaçõesVLEO
NORAD 60299·PAYLOAD·🇺🇸 United States

Lançado Jul 28, 2024 de Cape Canaveral Space Force Station

Loading…

Próximas Passagens (próximas 24 horas)

TLE

AtualizadoSource: CelesTrak SupGP

Época: Sep 14, 2026, 20:37 UTC

1 60299C 24132X   26257.85951389 -.00033003  00000+0 -97584-3 0  2571
2 60299  53.1583 224.1933 0001182  93.3708 329.7521 15.34383061    13

Acompanhe STARLINK-32151 em tempo real com AllMySat

Download on the App Store